YO3FVR-WX Weather Reports


time (UTC)temp
F
wind
direction
speed
knots
gust
knots
rain 1hr
in
rain 24hr
in
rain mn
in
humidity
%
barometer
mb
20260902231724 70 0 0.0 0.0 0.00 0.00 0.00 68 1012.9
20260902230654 71 203 0.0 0.0 0.00 0.00 0.00 68 1012.9
20260902225624 71 203 0.0 0.0 0.00 0.00 0.00 68 1013.0
20260902224554 71 156 0.9 0.9 0.00 0.00 0.00 68 1012.9
20260902223554 71 0 0.0 0.0 0.00 0.00 0.00 67 1012.7
20260902222524 71 0 0.0 0.0 0.00 0.00 0.00 67 1012.8
20260902221454 71 206 0.0 1.7 0.00 0.00 0.00 66 1013.0
20260902220424 72 0 0.0 0.9 0.00 0.00 0.00 65 1013.1
20260902215354 72 200 0.9 0.9 0.00 0.00 0.00 65 1013.0
20260902214324 72 201 0.0 10.4 0.00 0.00 0.00 64 1012.8
20260902213254 72 0 0.0 15.6 0.00 0.00 0.00 64 1012.8
20260902212224 72 0 0.0 20.0 0.00 0.00 0.00 63 1012.9
20260902211154 73 203 0.9 0.9 0.00 0.00 0.00 63 1013.1
20260902210125 73 0 0.0 0.0 0.00 0.00 0.00 63 1013.0
20260902205054 73 0 0.0 1.7 0.00 0.00 0.00 63 1012.9
20260902204054 73 0 0.0 0.0 0.00 0.00 0.00 63 1012.8
20260902203024 73 0 0.0 0.0 0.00 0.00 0.00 63 1012.7
20260902201954 73 0 0.0 0.0 0.00 0.00 0.00 63 1012.8
20260902200924 73 0 0.0 0.0 0.00 0.00 0.00 62 1012.7
20260902195924 74 0 0.0 0.0 0.00 0.00 0.00 62 1012.8
20260902194854 74 0 0.0 0.0 0.00 0.00 0.00 61 1012.8
20260902193854 74 90 0.0 0.0 0.00 0.00 0.00 60 1012.8
20260902192824 74 0 0.0 0.0 0.00 0.00 0.00 60 1012.8
20260902191754 74 0 0.0 0.0 0.00 0.00 0.00 59 1012.9
20260902190754 75 0 0.0 0.0 0.00 0.00 0.00 59 1012.9
20260902185725 75 262 0.0 0.0 0.00 0.00 0.00 58 1012.8
20260902184724 75 0 0.0 0.0 0.00 0.00 0.00 58 1012.8
20260902183654 76 0 0.0 0.0 0.00 0.00 0.00 58 1012.9
20260902182625 76 0 0.0 0.0 0.00 0.00 0.00 58 1012.8
20260902181555 76 0 0.0 0.9 0.00 0.00 0.00 58 1012.8
20260902180555 77 0 0.0 0.9 0.00 0.00 0.00 58 1012.7
20260902175525 77 0 0.0 2.6 0.00 0.00 0.00 58 1012.7
20260902174455 78 193 2.6 2.6 0.00 0.00 0.00 57 1012.6
20260902173455 79 185 0.9 0.9 0.00 0.00 0.00 56 1012.4
20260902172425 81 219 0.9 10.4 0.00 0.00 0.00 54 1012.4
20260902171355 82 202 1.7 16.5 0.00 0.00 0.00 50 1011.9
20260902170325 83 216 1.7 4.3 0.00 0.00 0.00 50 1011.7
20260902165255 83 0 0.0 3.5 0.00 0.00 0.00 49 1011.7
20260902164255 84 0 0.0 16.5 0.00 0.00 0.00 48 1011.7
20260902163225 84 202 16.5 17.4 0.00 0.00 0.00 47 1011.6
20260902162225 85 203 0.9 0.9 0.00 0.00 0.00 47 1011.6
20260902161225 85 0 0.0 0.0 0.00 0.00 0.00 47 1011.5
20260902160155 85 0 0.0 0.0 0.00 0.00 0.00 46 1011.6
20260902155155 85 0 0.0 0.0 0.00 0.00 0.00 46 1011.6
20260902154125 86 0 0.0 0.0 0.00 0.00 0.00 46 1011.6
20260902153125 86 0 0.0 0.0 0.00 0.00 0.00 46 1011.5
20260902152055 86 0 0.0 0.0 0.00 0.00 0.00 45 1011.5
20260902151025 86 0 0.0 0.0 0.00 0.00 0.00 45 1011.7
20260902150025 86 0 0.0 0.0 0.00 0.00 0.00 45 1011.7
20260902145025 86 0 0.0 0.9 0.00 0.00 0.00 45 1011.8
20260902143955 87 0 0.0 0.0 0.00 0.00 0.00 45 1011.7
20260902142925 87 0 0.0 0.0 0.00 0.00 0.00 45 1011.8
20260902141855 87 0 0.0 0.9 0.00 0.00 0.00 45 1011.8
20260902140825 87 0 0.0 0.0 0.00 0.00 0.00 45 1011.9
20260902135755 87 0 0.0 0.0 0.00 0.00 0.00 46 1012.0
20260902134725 87 0 0.0 0.0 0.00 0.00 0.00 45 1012.2
20260902133655 87 0 0.0 0.0 0.00 0.00 0.00 45 1012.2
20260902132655 86 0 0.0 0.0 0.00 0.00 0.00 46 1012.3
20260902131625 86 0 0.0 0.0 0.00 0.00 0.00 46 1012.3
20260902130625 86 203 0.0 0.0 0.00 0.00 0.00 46 1012.4
20260902125625 86 0 0.0 0.0 0.00 0.00 0.00 46 1012.5
20260902124555 86 0 0.0 0.0 0.00 0.00 0.00 47 1012.7
20260902123555 85 0 0.0 1.7 0.00 0.00 0.00 47 1012.8
20260902122525 86 40 0.0 0.0 0.00 0.00 0.00 48 1013.0
20260902121455 85 0 0.0 0.0 0.00 0.00 0.00 49 1013.1
20260902120455 85 0 0.0 0.0 0.00 0.00 0.00 49 1013.2
20260902115455 84 90 0.0 0.0 0.00 0.00 0.00 49 1013.2
20260902114425 84 0 0.0 0.0 0.00 0.00 0.00 49 1013.4
20260902113355 84 179 0.0 0.0 0.00 0.00 0.00 49 1013.7
20260902112325 83 216 0.0 0.9 0.00 0.00 0.00 49 1013.8
20260902111255 83 0 0.0 0.0 0.00 0.00 0.00 50 1013.9
20260902110225 83 0 0.0 1.7 0.00 0.00 0.00 51 1013.9
20260902105225 83 0 0.0 0.9 0.00 0.00 0.00 51 1013.9
20260902104155 83 0 0.0 10.4 0.00 0.00 0.00 52 1014.0
20260902103155 83 321 10.4 10.4 0.00 0.00 0.00 53 1014.1
20260902102125 82 0 0.0 0.0 0.00 0.00 0.00 53 1014.2
20260902101055 82 0 0.0 0.0 0.00 0.00 0.00 54 1014.2
20260902100055 81 0 0.0 0.0 0.00 0.00 0.00 54 1014.3
20260902095025 81 0 0.0 0.0 0.00 0.00 0.00 55 1014.4
20260902093955 80 0 0.0 0.0 0.00 0.00 0.00 55 1014.4
20260902092925 80 0 0.0 0.0 0.00 0.00 0.00 55 1014.5
20260902091925 80 0 0.0 0.0 0.00 0.00 0.00 56 1014.6
20260902090855 80 0 0.0 0.0 0.00 0.00 0.00 57 1014.7
20260902085825 80 0 0.0 0.0 0.00 0.00 0.00 57 1014.7
20260902084755 80 0 0.0 0.0 0.00 0.00 0.00 57 1014.7
20260902083755 80 0 0.0 0.0 0.00 0.00 0.00 58 1014.7
20260902082755 79 0 0.0 0.0 0.00 0.00 0.00 59 1014.8
20260902081725 79 0 0.0 0.0 0.00 0.00 0.00 60 1014.8
20260902080725 78 0 0.0 0.0 0.00 0.00 0.00 61 1014.8
20260902075655 78 0 0.0 0.0 0.00 0.00 0.00 62 1014.9
20260902074655 77 0 0.0 0.0 0.00 0.00 0.00 62 1014.8
20260902073625 76 0 0.0 0.0 0.00 0.00 0.00 63 1014.8
20260902072555 75 0 0.0 0.0 0.00 0.00 0.00 64 1014.6
20260902071555 75 0 0.0 0.0 0.00 0.00 0.00 65 1014.8
20260902070555 74 0 0.0 0.0 0.00 0.00 0.00 66 1014.7
20260902065525 74 0 0.0 0.0 0.00 0.00 0.00 66 1014.6
20260902064455 73 0 0.0 0.0 0.00 0.00 0.00 68 1014.5
20260902063425 72 0 0.0 0.0 0.00 0.00 0.00 69 1014.5
20260902062355 71 0 0.0 0.0 0.00 0.00 0.00 72 1014.5
20260902061325 71 0 0.0 0.0 0.00 0.00 0.00 72 1014.5
20260902060255 70 0 0.0 0.0 0.00 0.00 0.00 74 1014.4
20260902055255 69 0 0.0 0.0 0.00 0.00 0.00 74 1014.5
20260902054225 69 0 0.0 0.0 0.00 0.00 0.00 75 1014.5
20260902053155 69 0 0.0 0.0 0.00 0.00 0.00 77 1014.6
20260902052155 69 0 0.0 0.0 0.00 0.00 0.00 77 1014.8
20260902051125 68 0 0.0 0.0 0.00 0.00 0.00 78 1014.7
20260902050125 68 0 0.0 0.0 0.00 0.00 0.00 78 1014.7
20260902045125 68 0 0.0 0.0 0.00 0.00 0.00 78 1014.5
20260902044055 68 0 0.0 0.0 0.00 0.00 0.00 78 1014.5
20260902043025 68 0 0.0 0.0 0.00 0.00 0.00 77 1014.1
20260902042025 68 0 0.0 0.0 0.00 0.00 0.00 76 1014.3
20260902040955 69 0 0.0 0.0 0.00 0.00 0.00 75 1014.0
20260902035955 69 0 0.0 0.0 0.00 0.00 0.00 73 1014.1
20260902034955 69 0 0.0 0.0 0.00 0.00 0.00 72 1014.3
20260902033925 70 0 0.0 0.0 0.00 0.00 0.00 71 1014.3
20260902032855 70 0 0.0 0.0 0.00 0.00 0.00 71 1014.1
20260902031825 70 0 0.0 0.0 0.00 0.00 0.00 71 1013.8
20260902030755 70 0 0.0 0.0 0.00 0.00 0.00 71 1013.7
20260902025755 70 0 0.0 0.0 0.00 0.00 0.00 70 1013.8
20260902024725 71 0 0.0 0.0 0.00 0.00 0.00 68 1013.8
20260902023655 72 0 0.0 0.0 0.00 0.00 0.00 65 1014.0
20260902022625 72 0 0.0 0.0 0.00 0.00 0.00 65 1013.9
20260902021555 72 0 0.0 0.0 0.00 0.00 0.00 65 1013.6
20260902020555 72 0 0.0 0.0 0.00 0.00 0.00 65 1013.5
20260902015526 72 0 0.0 0.0 0.00 0.00 0.00 64 1013.5
20260902014456 72 0 0.0 0.0 0.00 0.00 0.00 64 1013.5
20260902013425 73 0 0.0 0.0 0.00 0.00 0.00 64 1013.4
20260902012426 73 0 0.0 0.0 0.00 0.00 0.00 64 1013.4
20260902011356 73 0 0.0 0.0 0.00 0.00 0.00 63 1013.3
20260902010326 73 0 0.0 0.0 0.00 0.00 0.00 64 1013.4
20260902005256 73 0 0.0 0.0 0.00 0.00 0.00 64 1013.4
20260902004226 73 0 0.0 0.0 0.00 0.00 0.00 63 1013.5
20260902003226 73 0 0.0 0.0 0.00 0.00 0.00 63 1013.4
20260902002156 74 0 0.0 0.0 0.00 0.00 0.00 62 1013.2
20260902001126 74 0 0.0 0.0 0.00 0.00 0.00 62 1013.3
20260902000056 74 0 0.0 0.0 0.00 0.00 0.00 62 1013.3
20260901235026 74 0 0.0 0.0 0.00 0.00 0.00 61 1013.2
20260901233956 74 0 0.0 0.0 0.00 0.00 0.00 60 1013.3
20260901232926 75 0 0.0 0.0 0.00 0.00 0.00 60 1013.1